Hourly Weather Bolshie Lzi

Today, 20 June, Sunday

Time Temperature Precipitation Wind Pressure Humidity
00:00 +19°C° 0 mm 2 mps 758 mmHg 78%
01:00 +19°C° 0 mm 2 mps 758 mmHg 81%
02:00 +18°C° 0 mm 2 mps 758 mmHg 82%
03:00 +19°C° 0 mm 2 mps 758 mmHg 83%
04:00 +19°C° 0 mm 2 mps 758 mmHg 83%
05:00 +20°C° 0 mm 2 mps 758 mmHg 83%
06:00 +23°C° 0 mm 2 mps 758 mmHg 75%
07:00 +25°C° 0 mm 2 mps 758 mmHg 68%
08:00 +27°C° 0 mm 3 mps 758 mmHg 60%
09:00 +28°C° 0 mm 3 mps 758 mmHg 54%
10:00 +29°C° 0 mm 3 mps 758 mmHg 48%
11:00 +31°C° 0 mm 3 mps 758 mmHg 41%
12:00 +31°C° 0 mm 3 mps 757 mmHg 40%
13:00 +33°C° 0 mm 4 mps 757 mmHg 39%
14:00 +33°C° 0 mm 4 mps 757 mmHg 37%
15:00 +33°C° 0 mm 3 mps 757 mmHg 38%
16:00 +33°C° 0 mm 3 mps 757 mmHg 39%
17:00 +33°C° 0 mm 3 mps 757 mmHg 40%
18:00 +30°C° 0 mm 2 mps 756 mmHg 50%
19:00 +28°C° 0 mm 2 mps 756 mmHg 59%
20:00 +26°C° 0 mm 2 mps 756 mmHg 69%
21:00 +25°C° 0 mm 2 mps 756 mmHg 70%
22:00 +25°C° 0 mm 2 mps 756 mmHg 71%
23:00 +24°C° 0 mm 2 mps 756 mmHg 73%

Tomorrow, 21 June, Monday

Time Temperature Precipitation Wind Pressure Humidity
00:00 +23°C° 0 mm 2 mps 757 mmHg 77%
01:00 +21°C° 0 mm 2 mps 757 mmHg 80%
02:00 +20°C° 0 mm 2 mps 757 mmHg 84%
03:00 +21°C° 0.4 mm 2 mps 757 mmHg 86%
04:00 +22°C° 0.4 mm 1 mps 757 mmHg 89%
05:00 +22°C° 0.4 mm 1 mps 757 mmHg 91%
06:00 +24°C° 0 mm 2 mps 757 mmHg 83%
07:00 +26°C° 0 mm 2 mps 757 mmHg 75%
08:00 +28°C° 0 mm 2 mps 757 mmHg 67%
09:00 +29°C° 0 mm 3 mps 757 mmHg 60%
10:00 +31°C° 0 mm 3 mps 757 mmHg 52%
11:00 +33°C° 0 mm 4 mps 757 mmHg 45%
12:00 +34°C° 0 mm 4 mps 757 mmHg 42%
13:00 +34°C° 0 mm 3 mps 756 mmHg 40%
14:00 +35°C° 0 mm 3 mps 756 mmHg 37%
15:00 +35°C° 0 mm 3 mps 756 mmHg 40%
16:00 +34°C° 0 mm 3 mps 756 mmHg 42%
17:00 +34°C° 0 mm 3 mps 756 mmHg 44%
18:00 +31°C° 0 mm 2 mps 756 mmHg 53%
19:00 +29°C° 0 mm 2 mps 756 mmHg 62%
20:00 +27°C° 0 mm 2 mps 756 mmHg 71%
21:00 +26°C° 0 mm 2 mps 756 mmHg 72%
22:00 +25°C° 0 mm 2 mps 756 mmHg 73%
23:00 +24°C° 0 mm 2 mps 756 mmHg 75%

Day after tomorrow, 22 June, Tuesday

Time Temperature Precipitation Wind Pressure Humidity
00:00 +23°C° 0 mm 2 mps 756 mmHg 78%
01:00 +21°C° 0 mm 2 mps 756 mmHg 81%
02:00 +21°C° 0 mm 2 mps 756 mmHg 84%
03:00 +21°C° 0 mm 2 mps 756 mmHg 83%
04:00 +21°C° 0 mm 2 mps 756 mmHg 82%
05:00 +21°C° 0 mm 2 mps 756 mmHg 82%
06:00 +24°C° 0 mm 2 mps 756 mmHg 73%
07:00 +26°C° 0 mm 2 mps 756 mmHg 65%
08:00 +28°C° 0 mm 3 mps 756 mmHg 57%
09:00 +29°C° 0 mm 3 mps 756 mmHg 53%
10:00 +32°C° 0 mm 4 mps 756 mmHg 48%
11:00 +33°C° 0 mm 4 mps 756 mmHg 44%
12:00 +34°C° 0 mm 4 mps 755 mmHg 40%
13:00 +34°C° 0 mm 5 mps 755 mmHg 37%
14:00 +35°C° 0 mm 5 mps 755 mmHg 34%
15:00 +35°C° 0 mm 5 mps 755 mmHg 37%
16:00 +34°C° 0 mm 4 mps 755 mmHg 40%
17:00 +34°C° 0 mm 4 mps 755 mmHg 43%
18:00 +31°C° 0 mm 3 mps 754 mmHg 51%
19:00 +29°C° 0 mm 3 mps 754 mmHg 59%
20:00 +27°C° 0 mm 3 mps 754 mmHg 67%
21:00 +26°C° 0.3 mm 2 mps 755 mmHg 73%
22:00 +25°C° 0.3 mm 2 mps 755 mmHg 79%
23:00 +24°C° 0.3 mm 2 mps 755 mmHg 85%

23 June, Wednesday

Time Temperature Precipitation Wind Pressure Humidity
00:00 +23°C° 0.4 mm 2 mps 755 mmHg 88%
01:00 +23°C° 0.4 mm 2 mps 755 mmHg 91%
02:00 +21°C° 0.4 mm 2 mps 756 mmHg 94%
03:00 +23°C° 0 mm 2 mps 756 mmHg 94%
04:00 +23°C° 0 mm 1 mps 756 mmHg 94%
05:00 +23°C° 0 mm 1 mps 756 mmHg 93%
06:00 +25°C° 0 mm 2 mps 756 mmHg 85%
07:00 +27°C° 0 mm 2 mps 756 mmHg 76%
08:00 +29°C° 0 mm 2 mps 756 mmHg 68%
09:00 +29°C° 0.6 mm 2 mps 756 mmHg 68%
10:00 +30°C° 0.6 mm 2 mps 756 mmHg 69%
11:00 +30°C° 0.6 mm 2 mps 757 mmHg 70%
12:00 +31°C° 0.1 mm 2 mps 757 mmHg 62%
13:00 +32°C° 0.1 mm 2 mps 756 mmHg 54%
14:00 +34°C° 0.1 mm 2 mps 756 mmHg 46%
15:00 +34°C° 0 mm 2 mps 756 mmHg 46%
16:00 +34°C° 0 mm 2 mps 756 mmHg 45%
17:00 +34°C° 0 mm 2 mps 756 mmHg 44%
18:00 +31°C° 0 mm 1 mps 756 mmHg 52%
19:00 +29°C° 0 mm 1 mps 756 mmHg 60%
20:00 +25°C° 0 mm 0 mps 756 mmHg 68%
21:00 +24°C° 0 mm 0 mps 756 mmHg 70%
22:00 +23°C° 0 mm 0 mps 756 mmHg 71%
23:00 +22°C° 0 mm 0 mps 756 mmHg 73%

24 June, Thursday

Time Temperature Precipitation Wind Pressure Humidity
00:00 +22°C° 0.3 mm 0 mps 756 mmHg 78%
01:00 +23°C° 0.3 mm 1 mps 756 mmHg 83%
02:00 +22°C° 0.3 mm 1 mps 757 mmHg 88%
03:00 +22°C° 0 mm 1 mps 757 mmHg 87%
04:00 +23°C° 0 mm 1 mps 757 mmHg 87%
05:00 +23°C° 0 mm 1 mps 757 mmHg 87%
06:00 +25°C° 0 mm 1 mps 757 mmHg 79%
07:00 +27°C° 0 mm 2 mps 756 mmHg 72%
08:00 +28°C° 0 mm 2 mps 756 mmHg 64%
09:00 +30°C° 0 mm 2 mps 756 mmHg 59%
10:00 +33°C° 0 mm 3 mps 756 mmHg 55%
11:00 +34°C° 0 mm 3 mps 756 mmHg 50%
12:00 +35°C° 0 mm 3 mps 756 mmHg 47%
13:00 +36°C° 0 mm 3 mps 755 mmHg 43%
14:00 +36°C° 0 mm 3 mps 755 mmHg 40%
15:00 +36°C° 0.1 mm 3 mps 755 mmHg 43%
16:00 +35°C° 0.1 mm 3 mps 755 mmHg 47%
17:00 +34°C° 0.1 mm 3 mps 754 mmHg 50%
18:00 +29°C° 5.8 mm 3 mps 755 mmHg 65%
19:00 +25°C° 5.8 mm 3 mps 755 mmHg 80%
20:00 +19°C° 5.8 mm 4 mps 755 mmHg 95%
21:00 +19°C° 1.1 mm 3 mps 755 mmHg 94%
22:00 +20°C° 1.1 mm 2 mps 755 mmHg 94%
23:00 +20°C° 1.1 mm 2 mps 754 mmHg 94%

25 June, Friday

Time Temperature Precipitation Wind Pressure Humidity
00:00 +19°C° 0.1 mm 2 mps 754 mmHg 95%
01:00 +19°C° 0.1 mm 2 mps 754 mmHg 95%
02:00 +19°C° 0.1 mm 2 mps 754 mmHg 96%
03:00 +20°C° 0 mm 1 mps 754 mmHg 95%
04:00 +21°C° 0 mm 1 mps 754 mmHg 95%
05:00 +21°C° 0 mm 1 mps 754 mmHg 94%
06:00 +23°C° 0 mm 1 mps 754 mmHg 87%
07:00 +24°C° 0 mm 1 mps 754 mmHg 79%
08:00 +26°C° 0 mm 1 mps 754 mmHg 71%
09:00 +28°C° 0 mm 2 mps 753 mmHg 65%
10:00 +29°C° 0 mm 2 mps 753 mmHg 58%
11:00 +31°C° 0 mm 3 mps 753 mmHg 52%
12:00 +33°C° 0 mm 3 mps 753 mmHg 49%
13:00 +33°C° 0 mm 3 mps 753 mmHg 47%
14:00 +34°C° 0 mm 3 mps 752 mmHg 45%
15:00 +30°C° 0.9 mm 3 mps 752 mmHg 59%
16:00 +27°C° 0.9 mm 4 mps 752 mmHg 73%
17:00 +23°C° 0.9 mm 4 mps 752 mmHg 87%
18:00 +24°C° 0.9 mm 3 mps 752 mmHg 90%
19:00 +23°C° 0.9 mm 2 mps 753 mmHg 92%
20:00 +22°C° 0.9 mm 1 mps 753 mmHg 94%
21:00 +21°C° 0 mm 1 mps 753 mmHg 95%
22:00 +21°C° 0 mm 1 mps 753 mmHg 96%
23:00 +20°C° 0 mm 1 mps 753 mmHg 97%
Show more